Year,Month,Day,Hour,Minute,Value (Times are PST for temperature in C)
2015,06,24,00,00,16.20
2015,06,24,00,01,16.20
2015,06,24,00,02,16.20
2015,06,24,00,03,16.20
2015,06,24,00,04,16.20
2015,06,24,00,05,16.20
2015,06,24,00,06,16.20
2015,06,24,00,07,16.10
2015,06,24,00,08,16.10
2015,06,24,00,09,16.10
2015,06,24,00,10,16.10
2015,06,24,00,11,16.10
2015,06,24,00,12,16.10
2015,06,24,00,13,16.10
2015,06,24,00,14,16.10
2015,06,24,00,15,16.10
2015,06,24,00,16,16.10
2015,06,24,00,17,16.10
2015,06,24,00,18,16.10
2015,06,24,00,19,16.10
2015,06,24,00,20,16.10
2015,06,24,00,21,16.10
2015,06,24,00,22,16.10
2015,06,24,00,23,16.10
2015,06,24,00,24,16.10
2015,06,24,00,25,16.10
2015,06,24,00,26,16.10
2015,06,24,00,27,16.10
2015,06,24,00,28,16.10
2015,06,24,00,29,16.10
2015,06,24,00,30,16.10
2015,06,24,00,31,16.10
2015,06,24,00,32,16.10
2015,06,24,00,33,16.10
2015,06,24,00,34,16.10
2015,06,24,00,35,16.10
2015,06,24,00,36,16.10
2015,06,24,00,37,16.10
2015,06,24,00,38,16.10
2015,06,24,00,39,16.10
2015,06,24,00,40,16.10
2015,06,24,00,41,16.10
2015,06,24,00,42,16.10
2015,06,24,00,43,16.10
2015,06,24,00,44,16.10
2015,06,24,00,45,16.10
2015,06,24,00,46,16.10
2015,06,24,00,47,16.10
2015,06,24,00,48,16.10
2015,06,24,00,49,16.10
2015,06,24,00,50,16.10
2015,06,24,00,51,16.10
2015,06,24,00,52,16.10
2015,06,24,00,53,16.10
2015,06,24,00,54,16.10
2015,06,24,00,55,16.10
2015,06,24,00,56,16.10
2015,06,24,00,57,16.10
2015,06,24,00,58,16.10
2015,06,24,00,59,16.10
2015,06,24,01,00,16.10
2015,06,24,01,01,16.10
2015,06,24,01,02,16.10
2015,06,24,01,03,16.10
2015,06,24,01,04,16.10
2015,06,24,01,05,16.10
2015,06,24,01,06,16.00
2015,06,24,01,07,15.90
2015,06,24,01,08,15.90
2015,06,24,01,09,15.90
2015,06,24,01,10,15.90
2015,06,24,01,11,15.90
2015,06,24,01,12,15.90
2015,06,24,01,13,15.90
2015,06,24,01,14,15.90
2015,06,24,01,15,15.90
2015,06,24,01,16,15.90
2015,06,24,01,17,15.90
2015,06,24,01,18,15.90
2015,06,24,01,19,15.90
2015,06,24,01,20,15.90
2015,06,24,01,21,15.90
2015,06,24,01,22,15.90
2015,06,24,01,23,15.90
2015,06,24,01,24,15.90
2015,06,24,01,25,15.90
2015,06,24,01,26,15.90
2015,06,24,01,27,15.90
2015,06,24,01,28,15.90
2015,06,24,01,29,15.90
2015,06,24,01,30,15.80
2015,06,24,01,31,15.80
2015,06,24,01,32,15.80
2015,06,24,01,33,15.80
2015,06,24,01,34,15.80
2015,06,24,01,35,15.80
2015,06,24,01,36,15.80
2015,06,24,01,37,15.80
2015,06,24,01,38,15.80
2015,06,24,01,39,15.80
2015,06,24,01,40,15.80
2015,06,24,01,41,15.80
2015,06,24,01,42,15.70
2015,06,24,01,43,15.70
2015,06,24,01,44,15.70
2015,06,24,01,45,15.70
2015,06,24,01,46,15.70
2015,06,24,01,47,15.70
2015,06,24,01,48,15.70
2015,06,24,01,49,15.60
2015,06,24,01,50,15.60
2015,06,24,01,51,15.60
2015,06,24,01,52,15.60
2015,06,24,01,53,15.60
2015,06,24,01,54,15.60
2015,06,24,01,55,15.60
2015,06,24,01,56,15.60
2015,06,24,01,57,15.50
2015,06,24,01,58,15.50
2015,06,24,01,59,15.50
2015,06,24,02,00,15.50
2015,06,24,02,01,15.50
2015,06,24,02,02,15.40
2015,06,24,02,03,15.40
2015,06,24,02,04,15.40
2015,06,24,02,05,15.40
2015,06,24,02,06,15.30
2015,06,24,02,07,15.30
2015,06,24,02,08,15.30
2015,06,24,02,09,15.30
2015,06,24,02,10,15.30
2015,06,24,02,11,15.30
2015,06,24,02,12,15.30
2015,06,24,02,13,15.30
2015,06,24,02,14,15.30
2015,06,24,02,15,15.20
2015,06,24,02,16,15.20
2015,06,24,02,17,15.20
2015,06,24,02,18,15.20
2015,06,24,02,19,15.20
2015,06,24,02,20,15.20
2015,06,24,02,21,15.10
2015,06,24,02,22,15.10
2015,06,24,02,23,15.10
2015,06,24,02,24,15.10
2015,06,24,02,25,15.10
2015,06,24,02,26,15.00
2015,06,24,02,27,15.00
2015,06,24,02,28,15.00
2015,06,24,02,29,15.00
2015,06,24,02,30,15.00
2015,06,24,02,31,15.00
2015,06,24,02,32,15.00
2015,06,24,02,33,15.00
2015,06,24,02,34,15.00
2015,06,24,02,35,15.00
2015,06,24,02,36,15.00
2015,06,24,02,37,15.00
2015,06,24,02,38,15.00
2015,06,24,02,39,15.00
2015,06,24,02,40,15.00
2015,06,24,02,41,15.00
2015,06,24,02,42,15.00
2015,06,24,02,43,15.00
2015,06,24,02,44,15.00
2015,06,24,02,45,15.00
2015,06,24,02,46,15.00
2015,06,24,02,47,15.00
2015,06,24,02,48,15.00
2015,06,24,02,49,15.00
2015,06,24,02,50,15.10
2015,06,24,02,51,15.10
2015,06,24,02,52,15.10
2015,06,24,02,53,15.10
2015,06,24,02,54,15.10
2015,06,24,02,55,15.10
2015,06,24,02,56,15.10
2015,06,24,02,57,15.10
2015,06,24,02,58,15.10
2015,06,24,02,59,15.10
2015,06,24,03,00,15.10
2015,06,24,03,01,15.10
2015,06,24,03,02,15.10
2015,06,24,03,03,15.10
2015,06,24,03,04,15.10
2015,06,24,03,05,15.10
2015,06,24,03,06,15.10
2015,06,24,03,07,15.10
2015,06,24,03,08,15.10
2015,06,24,03,09,15.10
2015,06,24,03,10,15.10
2015,06,24,03,11,15.10
2015,06,24,03,12,15.10
2015,06,24,03,13,15.10
2015,06,24,03,14,15.10
2015,06,24,03,15,15.00
2015,06,24,03,16,15.00
2015,06,24,03,17,15.00
2015,06,24,03,18,15.00
2015,06,24,03,19,15.00
2015,06,24,03,20,15.00
2015,06,24,03,21,15.00
2015,06,24,03,22,15.00
2015,06,24,03,23,15.00
2015,06,24,03,24,15.00
2015,06,24,03,25,15.00
2015,06,24,03,26,15.00
2015,06,24,03,27,15.00
2015,06,24,03,28,15.00
2015,06,24,03,29,15.00
2015,06,24,03,30,15.00
2015,06,24,03,31,15.00
2015,06,24,03,32,15.00
2015,06,24,03,33,15.00
2015,06,24,03,34,15.00
2015,06,24,03,35,15.00
2015,06,24,03,36,15.00
2015,06,24,03,37,15.00
2015,06,24,03,38,15.00
2015,06,24,03,39,15.00
2015,06,24,03,40,15.00
2015,06,24,03,41,15.00
2015,06,24,03,42,15.00
2015,06,24,03,43,15.00
2015,06,24,03,44,15.00
2015,06,24,03,45,15.00
2015,06,24,03,46,15.00
2015,06,24,03,47,15.00
2015,06,24,03,48,15.00
2015,06,24,03,49,15.10
2015,06,24,03,50,15.10
2015,06,24,03,51,15.10
2015,06,24,03,52,15.10
2015,06,24,03,53,15.10
2015,06,24,03,54,15.10
2015,06,24,03,55,15.10
2015,06,24,03,56,15.10
2015,06,24,03,57,15.00
2015,06,24,03,58,15.00
2015,06,24,03,59,15.00
2015,06,24,04,00,15.00
2015,06,24,04,01,14.90
2015,06,24,04,02,14.90
2015,06,24,04,03,14.90
2015,06,24,04,04,14.90
2015,06,24,04,05,14.80
2015,06,24,04,06,14.80
2015,06,24,04,07,14.80
2015,06,24,04,08,14.80
2015,06,24,04,09,14.80
2015,06,24,04,10,14.80
2015,06,24,04,11,14.80
2015,06,24,04,12,14.80
2015,06,24,04,13,14.80
2015,06,24,04,14,14.80
2015,06,24,04,15,14.80
2015,06,24,04,16,14.80
2015,06,24,04,17,14.80
2015,06,24,04,18,14.70
2015,06,24,04,19,14.80
2015,06,24,04,20,14.70
2015,06,24,04,21,14.70
2015,06,24,04,22,14.70
2015,06,24,04,23,14.70
2015,06,24,04,24,14.70
2015,06,24,04,25,14.70
2015,06,24,04,26,14.70
2015,06,24,04,27,14.70
2015,06,24,04,28,14.70
2015,06,24,04,29,14.70
2015,06,24,04,30,14.70
2015,06,24,04,31,14.70
2015,06,24,04,32,14.70
2015,06,24,04,33,14.70
2015,06,24,04,34,14.70
2015,06,24,04,35,14.70
2015,06,24,04,36,14.70
2015,06,24,04,37,14.70
2015,06,24,04,38,14.70
2015,06,24,04,39,14.70
2015,06,24,04,40,14.70
2015,06,24,04,41,14.70
2015,06,24,04,42,14.70
2015,06,24,04,43,14.70
2015,06,24,04,44,14.70
2015,06,24,04,45,14.80
2015,06,24,04,46,14.80
2015,06,24,04,47,14.80
2015,06,24,04,48,14.80
2015,06,24,04,49,14.80
2015,06,24,04,50,14.80
2015,06,24,04,51,14.80
2015,06,24,04,52,14.80
2015,06,24,04,53,14.80
2015,06,24,04,54,14.80
2015,06,24,04,55,14.80
2015,06,24,04,56,14.80
2015,06,24,04,57,14.80
2015,06,24,04,58,14.80
2015,06,24,04,59,14.80
2015,06,24,05,00,14.80
2015,06,24,05,01,14.80
2015,06,24,05,02,14.80
2015,06,24,05,03,14.80
2015,06,24,05,04,14.80
2015,06,24,05,05,14.70
2015,06,24,05,06,14.70
2015,06,24,05,07,14.70
2015,06,24,05,08,14.70
2015,06,24,05,09,14.70
2015,06,24,05,10,14.70
2015,06,24,05,11,14.70
2015,06,24,05,12,14.70
2015,06,24,05,13,14.70
2015,06,24,05,14,14.70
2015,06,24,05,15,14.70
2015,06,24,05,16,14.70
2015,06,24,05,17,14.70
2015,06,24,05,18,14.70
2015,06,24,05,19,14.70
2015,06,24,05,20,14.70
2015,06,24,05,21,14.70
2015,06,24,05,22,14.70
2015,06,24,05,23,14.70
2015,06,24,05,24,14.70
2015,06,24,05,25,14.70
2015,06,24,05,26,14.70
2015,06,24,05,27,14.70
2015,06,24,05,28,14.70
2015,06,24,05,29,14.70
2015,06,24,05,30,14.80
2015,06,24,05,31,14.80
2015,06,24,05,32,14.80
2015,06,24,05,33,14.80
2015,06,24,05,34,14.80
2015,06,24,05,35,14.80
2015,06,24,05,36,14.80
2015,06,24,05,37,14.80
2015,06,24,05,38,14.80
2015,06,24,05,39,14.80
2015,06,24,05,40,14.80
2015,06,24,05,41,14.70
2015,06,24,05,42,14.70
2015,06,24,05,43,14.70
2015,06,24,05,44,14.70
2015,06,24,05,45,14.70
2015,06,24,05,46,14.70
2015,06,24,05,47,14.70
2015,06,24,05,48,14.70
2015,06,24,05,49,14.70
2015,06,24,05,50,14.70
2015,06,24,05,51,14.70
2015,06,24,05,52,14.70
2015,06,24,05,53,14.70
2015,06,24,05,54,14.70
2015,06,24,05,55,14.70
2015,06,24,05,56,14.70
2015,06,24,05,57,14.70
2015,06,24,05,58,14.70
2015,06,24,05,59,14.80
2015,06,24,06,00,14.80
2015,06,24,06,01,14.80
2015,06,24,06,02,14.80
2015,06,24,06,03,14.80
2015,06,24,06,04,14.80
2015,06,24,06,05,14.80
2015,06,24,06,06,14.80
2015,06,24,06,07,14.80
2015,06,24,06,08,14.80
2015,06,24,06,09,14.80
2015,06,24,06,10,14.80
2015,06,24,06,11,14.80
2015,06,24,06,12,14.80
2015,06,24,06,13,14.90
2015,06,24,06,14,14.90
2015,06,24,06,15,14.90
2015,06,24,06,16,14.90
2015,06,24,06,17,14.90
2015,06,24,06,18,15.00
2015,06,24,06,19,15.00
2015,06,24,06,20,14.90
2015,06,24,06,21,14.90
2015,06,24,06,22,14.90
2015,06,24,06,23,14.90
2015,06,24,06,24,14.90
2015,06,24,06,25,14.90
2015,06,24,06,26,14.90
2015,06,24,06,27,14.90
2015,06,24,06,28,14.90
2015,06,24,06,29,14.90
2015,06,24,06,30,14.90
2015,06,24,06,31,14.80
2015,06,24,06,32,14.80
2015,06,24,06,33,14.80
2015,06,24,06,34,14.80
2015,06,24,06,35,14.80
2015,06,24,06,36,14.80
2015,06,24,06,37,14.80
2015,06,24,06,38,14.80
2015,06,24,06,39,14.80
2015,06,24,06,40,14.80
2015,06,24,06,41,14.80
2015,06,24,06,42,14.80
2015,06,24,06,43,14.80
2015,06,24,06,44,14.80
2015,06,24,06,45,14.80
2015,06,24,06,46,14.80
2015,06,24,06,47,14.80
2015,06,24,06,48,14.70
2015,06,24,06,49,14.70
2015,06,24,06,50,14.70
2015,06,24,06,51,14.70
2015,06,24,06,52,14.70
2015,06,24,06,53,14.70
2015,06,24,06,54,14.70
2015,06,24,06,55,14.70
2015,06,24,06,56,14.70
2015,06,24,06,57,14.70
2015,06,24,06,58,14.70
2015,06,24,06,59,14.80
2015,06,24,07,00,14.80
2015,06,24,07,01,14.80
2015,06,24,07,02,14.80
2015,06,24,07,03,14.80
2015,06,24,07,04,14.80
2015,06,24,07,05,14.80
2015,06,24,07,06,14.80
2015,06,24,07,07,14.90
2015,06,24,07,08,14.90
2015,06,24,07,09,14.90
2015,06,24,07,10,14.90
2015,06,24,07,11,14.90
2015,06,24,07,12,15.00
2015,06,24,07,13,15.00
2015,06,24,07,14,15.10
2015,06,24,07,15,15.10
2015,06,24,07,16,15.10
2015,06,24,07,17,15.20
2015,06,24,07,18,15.30
2015,06,24,07,19,15.30
2015,06,24,07,20,15.40
2015,06,24,07,21,15.50
2015,06,24,07,22,15.50
2015,06,24,07,23,15.60
2015,06,24,07,24,15.70
2015,06,24,07,25,15.80
2015,06,24,07,26,15.80
2015,06,24,07,27,15.90
2015,06,24,07,28,16.00
2015,06,24,07,29,16.10
2015,06,24,07,30,16.20
2015,06,24,07,31,16.30
2015,06,24,07,32,16.30
2015,06,24,07,33,16.40
2015,06,24,07,34,16.50
2015,06,24,07,35,16.70
2015,06,24,07,36,16.80
2015,06,24,07,37,17.00
2015,06,24,07,38,17.00
2015,06,24,07,39,17.20
2015,06,24,07,40,17.30
2015,06,24,07,41,17.40
2015,06,24,07,42,17.50
2015,06,24,07,43,17.70
2015,06,24,07,44,17.80
2015,06,24,07,45,17.90
2015,06,24,07,46,18.00
2015,06,24,07,47,18.10
2015,06,24,07,48,18.20
2015,06,24,07,49,18.30
2015,06,24,07,50,18.40
2015,06,24,07,51,18.50
2015,06,24,07,52,18.60
2015,06,24,07,53,18.70
2015,06,24,07,54,18.80
2015,06,24,07,55,18.80
2015,06,24,07,56,18.90
2015,06,24,07,57,18.90
2015,06,24,07,58,19.00
2015,06,24,07,59,19.10
2015,06,24,08,00,19.10
2015,06,24,08,01,19.20
2015,06,24,08,02,19.20
2015,06,24,08,03,19.30
2015,06,24,08,04,19.40
2015,06,24,08,05,19.40
2015,06,24,08,06,19.50
2015,06,24,08,07,19.50
2015,06,24,08,08,19.60
2015,06,24,08,09,19.60
2015,06,24,08,10,19.70
2015,06,24,08,11,19.70
2015,06,24,08,12,19.80
2015,06,24,08,13,19.80
2015,06,24,08,14,19.80
2015,06,24,08,15,19.90
2015,06,24,08,16,19.90
2015,06,24,08,17,19.90
2015,06,24,08,18,19.90
2015,06,24,08,19,19.90
2015,06,24,08,20,19.90
2015,06,24,08,21,20.00
2015,06,24,08,22,20.10
2015,06,24,08,23,20.10
2015,06,24,08,24,20.10
2015,06,24,08,25,20.10
2015,06,24,08,26,20.10
2015,06,24,08,27,20.10
2015,06,24,08,28,20.20
2015,06,24,08,29,20.20
2015,06,24,08,30,20.20
2015,06,24,08,31,20.20
2015,06,24,08,32,20.20
2015,06,24,08,33,20.30
2015,06,24,08,34,20.30
2015,06,24,08,35,20.40
2015,06,24,08,36,20.50
2015,06,24,08,37,20.50
2015,06,24,08,38,20.60
2015,06,24,08,39,20.70
2015,06,24,08,40,20.80
2015,06,24,08,41,20.90
2015,06,24,08,42,21.00
2015,06,24,08,43,21.00
2015,06,24,08,44,21.00
2015,06,24,08,45,21.10
2015,06,24,08,46,21.10
2015,06,24,08,47,21.20
2015,06,24,08,48,21.30
2015,06,24,08,49,21.40
2015,06,24,08,50,21.50
2015,06,24,08,51,21.60
2015,06,24,08,52,21.70
2015,06,24,08,53,21.80
2015,06,24,08,54,21.90
2015,06,24,08,55,21.90
2015,06,24,08,56,22.00
2015,06,24,08,57,22.00
2015,06,24,08,58,22.00
2015,06,24,08,59,22.10
2015,06,24,09,00,22.10
2015,06,24,09,01,22.10
2015,06,24,09,02,22.00
2015,06,24,09,03,22.00
2015,06,24,09,04,22.00
2015,06,24,09,05,22.10
2015,06,24,09,06,22.10
2015,06,24,09,07,22.10
2015,06,24,09,08,22.10
2015,06,24,09,09,22.10
2015,06,24,09,10,22.10
2015,06,24,09,11,22.10
2015,06,24,09,12,22.10
2015,06,24,09,13,22.00
2015,06,24,09,14,22.00
2015,06,24,09,15,21.90
2015,06,24,09,16,21.90
2015,06,24,09,17,21.90
2015,06,24,09,18,21.80
2015,06,24,09,19,21.70
2015,06,24,09,20,21.70
2015,06,24,09,21,21.70
2015,06,24,09,22,21.70
2015,06,24,09,23,21.70
2015,06,24,09,24,21.70
2015,06,24,09,25,21.80
2015,06,24,09,26,21.80
2015,06,24,09,27,21.90
2015,06,24,09,28,22.00
2015,06,24,09,29,22.00
2015,06,24,09,30,22.10
2015,06,24,09,31,22.20
2015,06,24,09,32,22.30
2015,06,24,09,33,22.30
2015,06,24,09,34,22.30
2015,06,24,09,35,22.30
2015,06,24,09,36,22.30
2015,06,24,09,37,22.30
2015,06,24,09,38,22.30
2015,06,24,09,39,22.30
2015,06,24,09,40,22.40
2015,06,24,09,41,22.50
2015,06,24,09,42,22.60
2015,06,24,09,43,22.80
2015,06,24,09,44,22.90
2015,06,24,09,45,22.90
2015,06,24,09,46,22.90
2015,06,24,09,47,22.90
2015,06,24,09,48,23.00
2015,06,24,09,49,22.90
2015,06,24,09,50,23.00
2015,06,24,09,51,23.10
2015,06,24,09,52,23.00
2015,06,24,09,53,22.90
2015,06,24,09,54,22.90
2015,06,24,09,55,22.90
2015,06,24,09,56,22.90
2015,06,24,09,57,22.90
2015,06,24,09,58,22.80
2015,06,24,09,59,22.80
2015,06,24,10,00,22.70
2015,06,24,10,01,22.70
2015,06,24,10,02,22.70
2015,06,24,10,03,22.70
2015,06,24,10,04,22.70
2015,06,24,10,05,22.60
2015,06,24,10,06,22.60
2015,06,24,10,07,22.50
2015,06,24,10,08,22.50
2015,06,24,10,09,22.30
2015,06,24,10,10,22.30
2015,06,24,10,11,22.20
2015,06,24,10,12,22.20
2015,06,24,10,13,22.20
2015,06,24,10,14,22.20
2015,06,24,10,15,22.20
2015,06,24,10,16,22.10
2015,06,24,10,17,22.00
2015,06,24,10,18,22.00
2015,06,24,10,19,22.00
2015,06,24,10,20,22.00
2015,06,24,10,21,21.90
2015,06,24,10,22,21.90
2015,06,24,10,23,21.80
2015,06,24,10,24,21.70
2015,06,24,10,25,21.70
2015,06,24,10,26,21.70
2015,06,24,10,27,21.60
2015,06,24,10,28,21.60
2015,06,24,10,29,21.60
2015,06,24,10,30,21.40
2015,06,24,10,31,21.40
2015,06,24,10,32,21.40
2015,06,24,10,33,21.40
2015,06,24,10,34,21.40
2015,06,24,10,35,21.30
2015,06,24,10,36,21.30
2015,06,24,10,37,21.30
2015,06,24,10,38,21.40
2015,06,24,10,39,21.40
2015,06,24,10,40,21.40
2015,06,24,10,41,21.30
2015,06,24,10,42,21.30
2015,06,24,10,43,21.30
2015,06,24,10,44,21.30
2015,06,24,10,45,21.30
2015,06,24,10,46,21.30
2015,06,24,10,47,21.30
2015,06,24,10,48,21.30
2015,06,24,10,49,21.30
2015,06,24,10,50,21.30
2015,06,24,10,51,21.30
2015,06,24,10,52,21.30
2015,06,24,10,53,21.30
2015,06,24,10,54,21.30
2015,06,24,10,55,21.30
2015,06,24,10,56,21.30
2015,06,24,10,57,21.30
2015,06,24,10,58,21.30
2015,06,24,10,59,21.30
2015,06,24,11,00,21.30
2015,06,24,11,01,21.30
2015,06,24,11,02,21.30
2015,06,24,11,03,21.30
2015,06,24,11,04,21.30
2015,06,24,11,05,21.30
2015,06,24,11,06,21.30
2015,06,24,11,07,21.30
2015,06,24,11,08,21.30
2015,06,24,11,09,21.30
2015,06,24,11,10,21.30
2015,06,24,11,11,21.30
2015,06,24,11,12,21.20
2015,06,24,11,13,21.20
2015,06,24,11,14,21.20
2015,06,24,11,15,21.10
2015,06,24,11,16,21.10
2015,06,24,11,17,21.10
2015,06,24,11,18,21.00
2015,06,24,11,19,21.00
2015,06,24,11,20,20.90
2015,06,24,11,21,20.90
2015,06,24,11,22,20.90
2015,06,24,11,23,20.90
2015,06,24,11,24,20.90
2015,06,24,11,25,20.80
2015,06,24,11,26,20.80
2015,06,24,11,27,20.80
2015,06,24,11,28,20.80
2015,06,24,11,29,20.80
2015,06,24,11,30,20.80
2015,06,24,11,31,20.80
2015,06,24,11,32,20.80
2015,06,24,11,33,20.80
2015,06,24,11,34,20.90
2015,06,24,11,35,20.90
2015,06,24,11,36,20.90
2015,06,24,11,37,20.90
2015,06,24,11,38,20.90
2015,06,24,11,39,20.80
2015,06,24,11,40,20.90
2015,06,24,11,41,20.90
2015,06,24,11,42,20.90
2015,06,24,11,43,20.90
2015,06,24,11,44,21.00
2015,06,24,11,45,21.00
2015,06,24,11,46,21.00
2015,06,24,11,47,21.00
2015,06,24,11,48,21.00
2015,06,24,11,49,21.00
2015,06,24,11,50,21.00
2015,06,24,11,51,21.00
2015,06,24,11,52,21.00
2015,06,24,11,53,21.00
2015,06,24,11,54,21.00
2015,06,24,11,55,21.00
2015,06,24,11,56,21.00
2015,06,24,11,57,21.00
2015,06,24,11,58,21.00
2015,06,24,11,59,21.00
2015,06,24,12,00,21.00
2015,06,24,12,01,20.90
2015,06,24,12,02,20.90
2015,06,24,12,03,20.90
2015,06,24,12,04,20.90
2015,06,24,12,05,20.90
2015,06,24,12,06,20.80
2015,06,24,12,07,20.80
2015,06,24,12,08,20.80
2015,06,24,12,09,20.80
2015,06,24,12,10,20.70
2015,06,24,12,11,20.70
2015,06,24,12,12,20.70
2015,06,24,12,13,20.60
2015,06,24,12,14,20.60
2015,06,24,12,15,20.60
2015,06,24,12,16,20.60
2015,06,24,12,17,20.60
2015,06,24,12,18,20.60
2015,06,24,12,19,20.60
2015,06,24,12,20,20.60
2015,06,24,12,21,20.60
2015,06,24,12,22,20.50
2015,06,24,12,23,20.50
2015,06,24,12,24,20.50
2015,06,24,12,25,20.50
2015,06,24,12,26,20.50
2015,06,24,12,27,20.50
2015,06,24,12,28,20.40
2015,06,24,12,29,20.40
2015,06,24,12,30,20.40
2015,06,24,12,31,20.40
2015,06,24,12,32,20.40
2015,06,24,12,33,20.40
2015,06,24,12,34,20.40
2015,06,24,12,35,20.30
2015,06,24,12,36,20.30
2015,06,24,12,37,20.20
2015,06,24,12,38,20.20
2015,06,24,12,39,20.20
2015,06,24,12,40,20.20
2015,06,24,12,41,20.20
2015,06,24,12,42,20.20
2015,06,24,12,43,20.20
2015,06,24,12,44,20.20
2015,06,24,12,45,20.20
2015,06,24,12,46,20.20
2015,06,24,12,47,20.20
2015,06,24,12,48,20.20
2015,06,24,12,49,20.20
2015,06,24,12,50,20.20
2015,06,24,12,51,20.20
2015,06,24,12,52,20.20
2015,06,24,12,53,20.20
2015,06,24,12,54,20.10
2015,06,24,12,55,20.20
2015,06,24,12,56,20.20
2015,06,24,12,57,20.20
2015,06,24,12,58,20.30
2015,06,24,12,59,20.30
2015,06,24,13,00,20.30
2015,06,24,13,01,20.30
2015,06,24,13,02,20.40
2015,06,24,13,03,20.40
2015,06,24,13,04,20.40
2015,06,24,13,05,20.40
2015,06,24,13,06,20.50
2015,06,24,13,07,20.50
2015,06,24,13,08,20.60
2015,06,24,13,09,20.60
2015,06,24,13,10,20.60
2015,06,24,13,11,20.60
2015,06,24,13,12,20.70
2015,06,24,13,13,20.70
2015,06,24,13,14,20.80
2015,06,24,13,15,20.80
2015,06,24,13,16,20.90
2015,06,24,13,17,21.00
2015,06,24,13,18,21.10
2015,06,24,13,19,21.10
2015,06,24,13,20,21.20
2015,06,24,13,21,21.20
2015,06,24,13,22,21.20
2015,06,24,13,23,21.20
2015,06,24,13,24,21.30
2015,06,24,13,25,21.30
2015,06,24,13,26,21.30
2015,06,24,13,27,21.30
2015,06,24,13,28,21.40
2015,06,24,13,29,21.50
2015,06,24,13,30,21.60
2015,06,24,13,31,21.60
2015,06,24,13,32,21.60
2015,06,24,13,33,21.60
2015,06,24,13,34,21.60
2015,06,24,13,35,21.70
2015,06,24,13,36,21.70
2015,06,24,13,37,21.70
2015,06,24,13,38,21.80
2015,06,24,13,39,21.90
2015,06,24,13,40,22.00
2015,06,24,13,41,22.00
2015,06,24,13,42,21.90
2015,06,24,13,43,21.90
2015,06,24,13,44,21.80
2015,06,24,13,45,21.90
2015,06,24,13,46,21.90
2015,06,24,13,47,21.90
2015,06,24,13,48,21.90
2015,06,24,13,49,22.00
2015,06,24,13,50,22.00
2015,06,24,13,51,22.00
2015,06,24,13,52,22.10
2015,06,24,13,53,22.10
2015,06,24,13,54,22.10
2015,06,24,13,55,22.10
2015,06,24,13,56,22.20
2015,06,24,13,57,22.20
2015,06,24,13,58,22.30
2015,06,24,13,59,22.60
2015,06,24,14,00,22.70
2015,06,24,14,01,22.80
2015,06,24,14,02,22.90
2015,06,24,14,03,22.90
2015,06,24,14,04,23.00
2015,06,24,14,05,23.00
2015,06,24,14,06,22.90
2015,06,24,14,07,22.90
2015,06,24,14,08,22.90
2015,06,24,14,09,23.00
2015,06,24,14,10,23.10
2015,06,24,14,11,23.10
2015,06,24,14,12,23.20
2015,06,24,14,13,23.30
2015,06,24,14,14,23.20
2015,06,24,14,15,23.30
2015,06,24,14,16,23.30
2015,06,24,14,17,23.30
2015,06,24,14,18,23.20
2015,06,24,14,19,23.10
2015,06,24,14,20,23.10
2015,06,24,14,21,23.10
2015,06,24,14,22,23.10
2015,06,24,14,23,23.10
2015,06,24,14,24,23.10
2015,06,24,14,25,23.00
2015,06,24,14,26,22.90
2015,06,24,14,27,22.90
2015,06,24,14,28,22.90
2015,06,24,14,29,22.80
2015,06,24,14,30,22.80
2015,06,24,14,31,22.80
2015,06,24,14,32,22.80
2015,06,24,14,33,22.70
2015,06,24,14,34,22.70
2015,06,24,14,35,22.60
2015,06,24,14,36,22.60
2015,06,24,14,37,22.60
2015,06,24,14,38,22.60
2015,06,24,14,39,22.60
2015,06,24,14,40,22.60
2015,06,24,14,41,22.50
2015,06,24,14,42,22.50
2015,06,24,14,43,22.50
2015,06,24,14,44,22.60
2015,06,24,14,45,22.60
2015,06,24,14,46,22.60
2015,06,24,14,47,22.50
2015,06,24,14,48,22.50
2015,06,24,14,49,22.40
2015,06,24,14,50,22.40
2015,06,24,14,51,22.40
2015,06,24,14,52,22.40
2015,06,24,14,53,22.40
2015,06,24,14,54,22.30
2015,06,24,14,55,22.30
2015,06,24,14,56,22.20
2015,06,24,14,57,22.20
2015,06,24,14,58,22.20
2015,06,24,14,59,22.20
2015,06,24,15,00,22.20
2015,06,24,15,01,22.30
2015,06,24,15,02,22.30
2015,06,24,15,03,22.30
2015,06,24,15,04,22.40
2015,06,24,15,05,22.40
2015,06,24,15,06,22.40
2015,06,24,15,07,22.40
2015,06,24,15,08,22.50
2015,06,24,15,09,22.50
2015,06,24,15,10,22.60
2015,06,24,15,11,22.60
2015,06,24,15,12,22.60
2015,06,24,15,13,22.60
2015,06,24,15,14,22.60
2015,06,24,15,15,22.60
2015,06,24,15,16,22.60
2015,06,24,15,17,22.60
2015,06,24,15,18,22.60
2015,06,24,15,19,22.60
2015,06,24,15,20,22.60
2015,06,24,15,21,22.60
2015,06,24,15,22,22.60
2015,06,24,15,23,22.50
2015,06,24,15,24,22.40
2015,06,24,15,25,22.30
2015,06,24,15,26,22.20
2015,06,24,15,27,22.20
2015,06,24,15,28,22.20
2015,06,24,15,29,22.20
2015,06,24,15,30,22.20
2015,06,24,15,31,22.10
2015,06,24,15,32,22.10
2015,06,24,15,33,22.00
2015,06,24,15,34,22.00
2015,06,24,15,35,22.00
2015,06,24,15,36,22.00
2015,06,24,15,37,22.00
2015,06,24,15,38,22.00
2015,06,24,15,39,22.00
2015,06,24,15,40,22.00
2015,06,24,15,41,22.00
2015,06,24,15,42,22.10
2015,06,24,15,43,22.10
2015,06,24,15,44,22.10
2015,06,24,15,45,22.10
2015,06,24,15,46,22.10
2015,06,24,15,47,22.10
2015,06,24,15,48,22.20
2015,06,24,15,49,22.20
2015,06,24,15,50,22.20
2015,06,24,15,51,22.20
2015,06,24,15,52,22.30
2015,06,24,15,53,22.30
2015,06,24,15,54,22.30
2015,06,24,15,55,22.30
2015,06,24,15,56,22.40
2015,06,24,15,57,22.40
2015,06,24,15,58,22.40
2015,06,24,15,59,22.40
2015,06,24,16,00,22.40
2015,06,24,16,01,22.40
2015,06,24,16,02,22.50
2015,06,24,16,03,22.50
2015,06,24,16,04,22.50
2015,06,24,16,05,22.50
2015,06,24,16,06,22.50
2015,06,24,16,07,22.50
2015,06,24,16,08,22.50
2015,06,24,16,09,22.50
2015,06,24,16,10,22.40
2015,06,24,16,11,22.40
2015,06,24,16,12,22.40
2015,06,24,16,13,22.40
2015,06,24,16,14,22.30
2015,06,24,16,15,22.20
2015,06,24,16,16,22.20
2015,06,24,16,17,22.20
2015,06,24,16,18,22.10
2015,06,24,16,19,22.00
2015,06,24,16,20,22.00
2015,06,24,16,21,22.00
2015,06,24,16,22,22.00
2015,06,24,16,23,21.90
2015,06,24,16,24,21.90
2015,06,24,16,25,21.90
2015,06,24,16,26,21.80
2015,06,24,16,27,21.80
2015,06,24,16,28,21.70
2015,06,24,16,29,21.60
2015,06,24,16,30,21.60
2015,06,24,16,31,21.60
2015,06,24,16,32,21.50
2015,06,24,16,33,21.40
2015,06,24,16,34,21.40
2015,06,24,16,35,21.40
2015,06,24,16,36,21.40
2015,06,24,16,37,21.40
2015,06,24,16,38,21.30
2015,06,24,16,39,21.30
2015,06,24,16,40,21.30
2015,06,24,16,41,21.30
2015,06,24,16,42,21.30
2015,06,24,16,43,21.30
2015,06,24,16,44,21.30
2015,06,24,16,45,21.30
2015,06,24,16,46,21.30
2015,06,24,16,47,21.30
2015,06,24,16,48,21.30
2015,06,24,16,49,21.20
2015,06,24,16,50,21.10
2015,06,24,16,51,21.00
2015,06,24,16,52,21.00
2015,06,24,16,53,20.90
2015,06,24,16,54,20.80
2015,06,24,16,55,20.80
2015,06,24,16,56,20.80
2015,06,24,16,57,20.80
2015,06,24,16,58,20.80
2015,06,24,16,59,20.80
2015,06,24,17,00,20.80
2015,06,24,17,01,20.70
2015,06,24,17,02,20.70
2015,06,24,17,03,20.70
2015,06,24,17,04,20.60
2015,06,24,17,05,20.60
2015,06,24,17,06,20.60
2015,06,24,17,07,20.50
2015,06,24,17,08,20.50
2015,06,24,17,09,20.50
2015,06,24,17,10,20.50
2015,06,24,17,11,20.50
2015,06,24,17,12,20.60
2015,06,24,17,13,20.60
2015,06,24,17,14,20.60
2015,06,24,17,15,20.60
2015,06,24,17,16,20.60
2015,06,24,17,17,20.60
2015,06,24,17,18,20.60
2015,06,24,17,19,20.60